{"data":{"norad_id":60030,"epoch":"2026-05-25T04:41:53.410848Z","epoch_age_seconds":58002,"freshness":"FRESH","line1":"1 60030U 24111Q   26145.19575707  .00000713  00000+0  32257-4 0  9990","line2":"2 60030  53.1607  79.0817 0001233  92.7760 267.3383 15.34392108110768","mean_motion":15.34392108,"eccentricity":0.0001233,"inclination_deg":53.1607,"raan_deg":79.0817,"arg_perigee_deg":92.776,"mean_anomaly_deg":267.3383,"bstar":3.2257e-5,"rev_number":11076,"period_min":93.84824077836,"perigee_km":461.88321850097,"apogee_km":463.57017548865,"semimajor_km":6840.8636969948,"source":"CELESTRAK","updated_at":"2026-05-25T13:38:19.133588Z"}}